Location: Saint Louis
(38.6272°N, 90.1978°W)
Time: 12:11:46
(UTC-05:00)

Tiangong 1 - Visible Passes

Search period start: 03 August 2015 00:00
Search period end: 13 August 2015 00:00
Orbit: 369 x 388 km, 42.8° (Epoch: 02 August)

Date Brightness Start Highest point End Pass type
(mag) Time Alt. Az. Time Alt. Az. Time Alt. Az.
05 Aug 3.7 04:47:03 10° SSE 04:47:38 10° SE 04:48:20 10° SE visible
06 Aug 2.2 05:19:46 11° SW 05:22:25 34° SSE 05:25:16 10° E visible
07 Aug 3.1 04:21:07 18° SE 04:21:07 18° SE 04:23:15 10° E visible
08 Aug 1.2 04:54:29 28° SW 04:55:50 57° SSE 04:58:53 10° ENE visible
09 Aug 3.2 03:55:42 21° ESE 03:55:42 21° ESE 03:57:06 10° E visible
09 Aug 1.5 05:27:48 10° W 05:30:50 56° NNW 05:33:53 10° ENE visible
10 Aug 0.8 04:28:56 74° WSW 04:29:10 88° NW 04:32:16 10° ENE visible
11 Aug 4.1 03:30:02 14° ENE 03:30:02 14° ENE 03:30:33 10° ENE visible
11 Aug 1.9 05:02:07 17° WNW 05:04:11 43° N 05:07:09 10° ENE visible
12 Aug 2.2 04:03:12 42° NE 04:03:12 42° NE 04:05:28 10° ENE visible
12 Aug 2.4 05:36:25 10° WNW 05:39:17 35° N 05:42:10 10° ENE visible
